Location: Eymir
(36.7333°N, 29.7833°E)
Time: 17:59:53
(UTC+00:00)

Cosmos 921 Rocket - Pass Details

Date: 14 January 2026
Orbit: 564 x 620 km, 75.8° (Epoch: 17 February)

Event Time Altitude Azimuth Distance (km) Brightness Sun altitude
Rises 04:39:42 0° 233° (SW) 2,844 6.1 -6.9°
Reaches altitude 10° 04:42:38 10° 254° (WSW) 1,934 5.1 -6.4°
Maximum altitude 04:45:27 17° 295° (WNW) 1,527 4.4 -5.8°
Drops below altitude 10° 04:48:15 10° 336° (NNW) 1,919 5.2 -5.3°
Sets 04:51:09 0° 357° (N) 2,811 6.2 -4.8°
